Location: ?astrovice
(49.6513°N, 14.9287°E)
Time: 01:23:45
(UTC+00:00)

ASTEX 1 - Pass Details

Date: 09 April 2020
Orbit: 720 x 743 km, 92.7° (Epoch: 30 May)

Event Time Altitude Azimuth Distance (km) Brightness Sun altitude
Exits shadow 21:49:59 42° 290° (WNW) 1,050 4.4 -30.3°
Drops below altitude 10° 21:54:10 10° 343° (NNW) 2,250 6.8 -30.5°
Sets 21:56:35 0° 350° (N) 3,174 7.8 -30.6°
